Time,TemperatureF,DewpointF,PressureIn,WindDirection,WindDirectionDegrees,WindSpeedMPH,WindSpeedGustMPH,Humidity,HourlyPrecipIn,Conditions,Clouds,dailyrainin,SoftwareType,DateUTC
2013-04-12 00:00:00,41.2,41.2,29.55,East,97,4.0,4.0,100,0.00,,,0.00,WeatherCatV1.15B25,2013-04-12 04:00:00,
2013-04-12 00:05:00,41.2,41.2,29.55,East,97,2.0,4.0,100,0.00,,,0.00,WeatherCatV1.15B25,2013-04-12 04:05:00,
2013-04-12 00:10:00,41.1,41.1,29.55,East,97,0.0,1.0,100,0.00,,,0.00,WeatherCatV1.15B25,2013-04-12 04:10:00,
2013-04-12 00:15:00,41.2,41.2,29.56,East,97,1.0,2.0,100,0.00,,,0.00,WeatherCatV1.15B25,2013-04-12 04:15:00,
2013-04-12 00:20:00,41.2,41.2,29.56,East,97,0.0,0.0,100,0.00,,,0.00,WeatherCatV1.15B25,2013-04-12 04:20:00,
2013-04-12 00:25:00,41.2,41.2,29.56,East,97,0.0,2.0,100,0.00,,,0.00,WeatherCatV1.15B25,2013-04-12 04:25:00,
2013-04-12 00:30:00,41.2,41.2,29.56,East,97,0.0,0.0,100,0.00,,,0.01,WeatherCatV1.15B25,2013-04-12 04:30:00,
2013-04-12 00:35:00,41.2,41.2,29.56,East,97,0.0,0.0,100,0.10,,,0.02,WeatherCatV1.15B25,2013-04-12 04:35:00,
2013-04-12 00:40:00,41.2,41.2,29.56,East,97,0.0,0.0,100,0.08,,,0.02,WeatherCatV1.15B25,2013-04-12 04:40:00,
2013-04-12 00:45:00,41.2,41.2,29.56,East,97,0.0,0.0,100,0.07,,,0.03,WeatherCatV1.15B25,2013-04-12 04:45:00,
2013-04-12 00:50:00,41.2,41.2,29.56,East,97,0.0,0.0,100,0.07,,,0.04,WeatherCatV1.15B25,2013-04-12 04:50:00,
2013-04-12 00:55:00,41.2,41.2,29.56,East,97,0.0,0.0,100,0.07,,,0.04,WeatherCatV1.15B25,2013-04-12 04:55:00,
2013-04-12 01:00:00,41.3,41.3,29.57,East,97,0.0,0.0,100,0.06,,,0.04,WeatherCatV1.15B25,2013-04-12 05:00:00,
2013-04-12 01:05:00,41.3,41.3,29.57,East,97,0.0,0.0,100,0.04,,,0.05,WeatherCatV1.15B25,2013-04-12 05:05:00,
2013-04-12 01:10:00,41.3,41.3,29.57,East,97,0.0,0.0,100,0.04,,,0.05,WeatherCatV1.15B25,2013-04-12 05:10:00,
2013-04-12 01:15:00,41.5,41.5,29.56,East,97,0.0,0.0,100,0.04,,,0.05,WeatherCatV1.15B25,2013-04-12 05:15:00,
2013-04-12 01:20:00,41.5,41.5,29.56,East,97,0.0,0.0,100,0.04,,,0.05,WeatherCatV1.15B25,2013-04-12 05:20:00,
2013-04-12 01:25:00,41.5,41.5,29.56,East,97,0.0,0.0,100,0.00,,,0.05,WeatherCatV1.15B25,2013-04-12 05:25:00,
2013-04-12 01:30:00,41.5,41.5,29.56,East,97,0.0,0.0,100,0.00,,,0.05,WeatherCatV1.15B25,2013-04-12 05:30:00,
2013-04-12 01:35:00,41.5,41.5,29.56,East,97,0.0,0.0,100,0.00,,,0.05,WeatherCatV1.15B25,2013-04-12 05:35:00,
2013-04-12 01:40:00,41.5,41.5,29.56,East,97,0.0,0.0,100,0.00,,,0.05,WeatherCatV1.15B25,2013-04-12 05:40:00,
2013-04-12 01:45:00,41.5,41.5,29.56,East,97,0.0,0.0,100,0.00,,,0.06,WeatherCatV1.15B25,2013-04-12 05:45:00,
2013-04-12 01:50:00,41.5,41.5,29.56,East,97,0.0,0.0,100,0.00,,,0.06,WeatherCatV1.15B25,2013-04-12 05:50:00,
2013-04-12 01:55:00,41.6,41.6,29.56,East,97,1.0,1.0,100,0.00,,,0.06,WeatherCatV1.15B25,2013-04-12 05:55:00,
2013-04-12 02:00:00,41.6,41.6,29.58,East,97,1.0,3.0,100,0.04,,,0.07,WeatherCatV1.15B25,2013-04-12 06:00:00,
2013-04-12 02:05:00,41.8,41.8,29.58,WSW,248,0.0,4.0,100,0.04,,,0.07,WeatherCatV1.15B25,2013-04-12 06:05:00,
2013-04-12 02:10:00,41.8,41.8,29.58,WSW,248,0.0,2.0,100,0.08,,,0.08,WeatherCatV1.15B25,2013-04-12 06:10:00,
2013-04-12 02:15:00,41.9,41.9,29.56,WSW,248,1.0,1.0,100,0.06,,,0.08,WeatherCatV1.15B25,2013-04-12 06:15:00,
2013-04-12 02:20:00,41.9,41.9,29.56,WSW,248,0.0,2.0,100,0.05,,,0.09,WeatherCatV1.15B25,2013-04-12 06:20:00,
2013-04-12 02:25:00,42.1,42.1,29.56,WSW,248,0.0,2.0,100,0.05,,,0.09,WeatherCatV1.15B25,2013-04-12 06:25:00,
2013-04-12 02:30:00,42.1,42.1,29.56,West,267,2.0,4.0,100,0.05,,,0.09,WeatherCatV1.15B25,2013-04-12 06:30:00,
2013-04-12 02:35:00,42.2,42.2,29.56,NNW,328,3.0,6.0,100,0.04,,,0.09,WeatherCatV1.15B25,2013-04-12 06:35:00,
2013-04-12 02:40:00,42.5,42.5,29.56,WNW,285,6.0,10.0,100,0.00,,,0.09,WeatherCatV1.15B25,2013-04-12 06:40:00,
2013-04-12 02:45:00,42.6,42.6,29.57,West,273,4.0,11.0,100,0.00,,,0.09,WeatherCatV1.15B25,2013-04-12 06:45:00,
2013-04-12 02:50:00,42.6,42.6,29.57,WNW,285,5.0,10.0,100,0.00,,,0.09,WeatherCatV1.15B25,2013-04-12 06:50:00,
2013-04-12 02:55:00,42.5,42.5,29.57,WNW,283,3.0,6.0,100,0.00,,,0.09,WeatherCatV1.15B25,2013-04-12 06:55:00,
2013-04-12 03:00:00,42.5,42.5,29.57,WNW,297,4.0,6.0,100,0.00,,,0.09,WeatherCatV1.15B25,2013-04-12 07:00:00,
2013-04-12 03:05:00,42.3,42.3,29.57,West,275,4.0,6.0,100,0.00,,,0.09,WeatherCatV1.15B25,2013-04-12 07:05:00,
2013-04-12 03:10:00,42.2,42.2,29.57,West,279,3.0,9.0,100,0.00,,,0.09,WeatherCatV1.15B25,2013-04-12 07:10:00,
2013-04-12 03:15:00,42.2,42.2,29.57,West,279,4.0,7.0,100,0.00,,,0.09,WeatherCatV1.15B25,2013-04-12 07:15:00,
2013-04-12 03:20:00,42.2,42.2,29.57,NW,304,6.0,7.0,100,0.00,,,0.09,WeatherCatV1.15B25,2013-04-12 07:20:00,
2013-04-12 03:25:00,42.2,42.2,29.57,West,279,6.0,7.0,100,0.00,,,0.09,WeatherCatV1.15B25,2013-04-12 07:25:00,
2013-04-12 03:30:00,42.2,42.2,29.56,WNW,288,4.0,4.0,100,0.00,,,0.09,WeatherCatV1.15B25,2013-04-12 07:30:00,
2013-04-12 03:35:00,42.2,42.2,29.56,WNW,295,4.0,5.0,100,0.00,,,0.09,WeatherCatV1.15B25,2013-04-12 07:35:00,
2013-04-12 03:40:00,42.3,42.3,29.56,WNW,286,2.0,4.0,100,0.00,,,0.09,WeatherCatV1.15B25,2013-04-12 07:40:00,
2013-04-12 03:45:00,42.3,42.3,29.56,NW,323,2.0,5.0,100,0.00,,,0.09,WeatherCatV1.15B25,2013-04-12 07:45:00,
2013-04-12 03:50:00,42.3,42.3,29.56,WSW,243,4.0,11.0,100,0.00,,,0.09,WeatherCatV1.15B25,2013-04-12 07:50:00,
2013-04-12 03:55:00,42.2,42.2,29.56,WNW,302,2.0,9.0,100,0.00,,,0.09,WeatherCatV1.15B25,2013-04-12 07:55:00,
2013-04-12 04:00:00,42.1,42.1,29.56,NW,304,6.0,9.0,100,0.00,,,0.09,WeatherCatV1.15B25,2013-04-12 08:00:00,
2013-04-12 04:05:00,41.8,41.8,29.56,WNW,287,5.0,11.0,100,0.00,,,0.09,WeatherCatV1.15B25,2013-04-12 08:05:00,
2013-04-12 04:10:00,41.5,41.5,29.56,West,277,5.0,10.0,100,0.00,,,0.09,WeatherCatV1.15B25,2013-04-12 08:10:00,
2013-04-12 04:15:00,40.9,40.9,29.56,WNW,297,9.0,10.0,100,0.00,,,0.09,WeatherCatV1.15B25,2013-04-12 08:15:00,
2013-04-12 04:20:00,40.5,40.0,29.56,WNW,295,4.0,9.0,98,0.00,,,0.09,WeatherCatV1.15B25,2013-04-12 08:20:00,
2013-04-12 04:25:00,40.3,39.5,29.56,West,272,6.0,9.0,97,0.00,,,0.09,WeatherCatV1.15B25,2013-04-12 08:25:00,
2013-04-12 04:30:00,40.2,39.2,29.57,WNW,285,4.0,6.0,96,0.00,,,0.09,WeatherCatV1.15B25,2013-04-12 08:30:00,
2013-04-12 04:35:00,40.1,38.8,29.57,WNW,288,2.0,3.0,95,0.00,,,0.09,WeatherCatV1.15B25,2013-04-12 08:35:00,
2013-04-12 04:40:00,40.1,38.8,29.57,West,277,5.0,5.0,95,0.00,,,0.09,WeatherCatV1.15B25,2013-04-12 08:40:00,
2013-04-12 04:45:00,40.1,38.5,29.57,WNW,289,3.0,6.0,94,0.00,,,0.09,WeatherCatV1.15B25,2013-04-12 08:45:00,
2013-04-12 04:50:00,39.9,38.0,29.57,West,276,3.0,5.0,93,0.00,,,0.09,WeatherCatV1.15B25,2013-04-12 08:50:00,
2013-04-12 04:55:00,39.9,38.0,29.57,WNW,282,5.0,11.0,93,0.00,,,0.09,WeatherCatV1.15B25,2013-04-12 08:55:00,
2013-04-12 05:00:00,39.9,37.8,29.58,WNW,285,3.0,7.0,92,0.00,,,0.09,WeatherCatV1.15B25,2013-04-12 09:00:00,
2013-04-12 05:05:00,39.8,37.7,29.58,WNW,285,4.0,7.0,92,0.00,,,0.09,WeatherCatV1.15B25,2013-04-12 09:05:00,
2013-04-12 05:10:00,39.8,37.7,29.58,WSW,257,7.0,7.0,92,0.00,,,0.09,WeatherCatV1.15B25,2013-04-12 09:10:00,
2013-04-12 05:15:00,39.6,37.7,29.58,WNW,286,4.0,7.0,93,0.00,,,0.09,WeatherCatV1.15B25,2013-04-12 09:15:00,
2013-04-12 05:20:00,39.6,37.7,29.58,WNW,296,4.0,12.0,93,0.00,,,0.09,WeatherCatV1.15B25,2013-04-12 09:20:00,
2013-04-12 05:25:00,39.5,37.4,29.58,WNW,288,5.0,6.0,92,0.00,,,0.09,WeatherCatV1.15B25,2013-04-12 09:25:00,
2013-04-12 05:30:00,39.5,37.6,29.59,WNW,293,4.0,9.0,93,0.00,,,0.09,WeatherCatV1.15B25,2013-04-12 09:30:00,
2013-04-12 05:35:00,39.3,37.7,29.59,WNW,291,5.0,6.0,94,0.00,,,0.09,WeatherCatV1.15B25,2013-04-12 09:35:00,
2013-04-12 05:40:00,39.3,38.0,29.59,WNW,293,3.0,6.0,95,0.00,,,0.09,WeatherCatV1.15B25,2013-04-12 09:40:00,
2013-04-12 05:45:00,39.2,37.9,29.59,WNW,295,9.0,9.0,95,0.00,,,0.09,WeatherCatV1.15B25,2013-04-12 09:45:00,
2013-04-12 05:50:00,39.2,37.6,29.59,WNW,282,5.0,5.0,94,0.00,,,0.09,WeatherCatV1.15B25,2013-04-12 09:50:00,
2013-04-12 05:55:00,39.2,37.6,29.59,West,276,3.0,9.0,94,0.00,,,0.09,WeatherCatV1.15B25,2013-04-12 09:55:00,
2013-04-12 06:00:00,39.2,37.6,29.59,WNW,288,2.0,3.0,94,0.00,,,0.09,WeatherCatV1.15B25,2013-04-12 10:00:00,
2013-04-12 06:05:00,39.2,37.3,29.59,West,276,2.0,8.0,93,0.00,,,0.09,WeatherCatV1.15B25,2013-04-12 10:05:00,
2013-04-12 06:10:00,39.2,37.3,29.59,West,273,3.0,5.0,93,0.00,,,0.09,WeatherCatV1.15B25,2013-04-12 10:10:00,
2013-04-12 06:15:00,39.2,37.3,29.59,NW,314,3.0,4.0,93,0.00,,,0.09,WeatherCatV1.15B25,2013-04-12 10:15:00,
2013-04-12 06:20:00,39.2,37.1,29.59,West,279,4.0,5.0,92,0.00,,,0.09,WeatherCatV1.15B25,2013-04-12 10:20:00,
2013-04-12 06:25:00,39.2,37.3,29.59,WSW,255,7.0,7.0,93,0.00,,,0.09,WeatherCatV1.15B25,2013-04-12 10:25:00,
2013-04-12 06:30:00,39.2,37.3,29.59,WNW,297,6.0,9.0,93,0.00,,,0.09,WeatherCatV1.15B25,2013-04-12 10:30:00,
2013-04-12 06:35:00,39.2,37.1,29.59,West,276,3.0,8.0,92,0.00,,,0.09,WeatherCatV1.15B25,2013-04-12 10:35:00,
2013-04-12 06:40:00,39.2,37.1,29.59,West,271,6.0,7.0,92,0.00,,,0.09,WeatherCatV1.15B25,2013-04-12 10:40:00,
2013-04-12 06:45:00,39.1,37.0,29.59,SW,223,4.0,10.0,92,0.00,,,0.09,WeatherCatV1.15B25,2013-04-12 10:45:00,
2013-04-12 06:50:00,39.2,37.1,29.59,West,266,3.0,6.0,92,0.00,,,0.09,WeatherCatV1.15B25,2013-04-12 10:50:00,
2013-04-12 06:55:00,39.2,37.3,29.59,WSW,258,4.0,11.0,93,0.00,,,0.09,WeatherCatV1.15B25,2013-04-12 10:55:00,
2013-04-12 07:00:00,39.2,37.3,29.60,West,259,3.0,6.0,93,0.00,,,0.09,WeatherCatV1.15B25,2013-04-12 11:00:00,
2013-04-12 07:05:00,39.1,37.2,29.60,SW,223,2.0,10.0,93,0.00,,,0.09,WeatherCatV1.15B25,2013-04-12 11:05:00,
2013-04-12 07:10:00,39.1,37.2,29.60,West,263,4.0,8.0,93,0.00,,,0.09,WeatherCatV1.15B25,2013-04-12 11:10:00,
2013-04-12 07:15:00,39.1,37.2,29.61,NW,326,1.0,15.0,93,0.00,,,0.09,WeatherCatV1.15B25,2013-04-12 11:15:00,
2013-04-12 07:20:00,39.1,37.2,29.61,NW,315,2.0,4.0,93,0.00,,,0.09,WeatherCatV1.15B25,2013-04-12 11:20:00,
2013-04-12 07:25:00,38.9,36.8,29.61,WNW,287,2.0,7.0,92,0.00,,,0.09,WeatherCatV1.15B25,2013-04-12 11:25:00,
2013-04-12 07:30:00,38.8,36.7,29.61,West,262,2.0,6.0,92,0.00,,,0.09,WeatherCatV1.15B25,2013-04-12 11:30:00,
2013-04-12 07:35:00,38.8,36.4,29.61,WSW,257,4.0,7.0,91,0.00,,,0.09,WeatherCatV1.15B25,2013-04-12 11:35:00,
2013-04-12 07:40:00,38.6,35.9,29.61,WNW,283,1.0,16.0,90,0.00,,,0.09,WeatherCatV1.15B25,2013-04-12 11:40:00,
2013-04-12 07:45:00,38.5,35.5,29.62,West,273,4.0,11.0,89,0.00,,,0.09,WeatherCatV1.15B25,2013-04-12 11:45:00,
2013-04-12 07:50:00,38.5,35.3,29.62,NW,309,6.0,9.0,88,0.00,,,0.09,WeatherCatV1.15B25,2013-04-12 11:50:00,
2013-04-12 07:55:00,38.5,35.5,29.62,West,269,4.0,7.0,89,0.00,,,0.09,WeatherCatV1.15B25,2013-04-12 11:55:00,
2013-04-12 08:00:00,38.5,35.8,29.63,West,278,4.0,11.0,90,0.00,,,0.09,WeatherCatV1.15B25,2013-04-12 12:00:00,
2013-04-12 08:05:00,38.5,35.8,29.63,West,271,4.0,10.0,90,0.00,,,0.09,WeatherCatV1.15B25,2013-04-12 12:05:00,
2013-04-12 08:10:00,38.5,35.8,29.63,WSW,254,3.0,12.0,90,0.00,,,0.09,WeatherCatV1.15B25,2013-04-12 12:10:00,
2013-04-12 08:15:00,38.5,35.8,29.63,West,276,2.0,11.0,90,0.00,,,0.09,WeatherCatV1.15B25,2013-04-12 12:15:00,
2013-04-12 08:20:00,38.5,35.8,29.63,WNW,295,2.0,6.0,90,0.00,,,0.09,WeatherCatV1.15B25,2013-04-12 12:20:00,
2013-04-12 08:25:00,38.5,35.8,29.63,SW,226,12.0,14.0,90,0.00,,,0.09,WeatherCatV1.15B25,2013-04-12 12:25:00,
2013-04-12 08:30:00,38.5,35.3,29.64,West,264,7.0,7.0,88,0.00,,,0.09,WeatherCatV1.15B25,2013-04-12 12:30:00,
2013-04-12 08:35:00,38.5,34.4,29.64,West,260,3.0,3.0,85,0.00,,,0.09,WeatherCatV1.15B25,2013-04-12 12:35:00,
2013-04-12 08:40:00,38.3,34.5,29.64,WNW,290,2.0,18.0,86,0.00,,,0.09,WeatherCatV1.15B25,2013-04-12 12:40:00,
2013-04-12 08:45:00,38.3,34.2,29.64,WNW,288,5.0,13.0,85,0.00,,,0.09,WeatherCatV1.15B25,2013-04-12 12:45:00,
2013-04-12 08:50:00,38.3,34.5,29.64,West,266,4.0,12.0,86,0.00,,,0.09,WeatherCatV1.15B25,2013-04-12 12:50:00,
2013-04-12 08:55:00,38.2,34.4,29.64,West,262,3.0,7.0,86,0.00,,,0.09,WeatherCatV1.15B25,2013-04-12 12:55:00,
2013-04-12 09:00:00,38.2,34.4,29.65,West,259,7.0,14.0,86,0.00,,,0.09,WeatherCatV1.15B25,2013-04-12 13:00:00,
2013-04-12 09:05:00,38.2,34.4,29.65,WNW,282,5.0,6.0,86,0.00,,,0.09,WeatherCatV1.15B25,2013-04-12 13:05:00,
2013-04-12 09:10:00,38.0,33.9,29.65,WSW,245,12.0,12.0,85,0.00,,,0.09,WeatherCatV1.15B25,2013-04-12 13:10:00,
2013-04-12 09:15:00,38.0,33.9,29.65,West,262,4.0,12.0,85,0.00,,,0.09,WeatherCatV1.15B25,2013-04-12 13:15:00,
2013-04-12 09:20:00,38.0,33.6,29.65,WSW,245,11.0,17.0,84,0.00,,,0.09,WeatherCatV1.15B25,2013-04-12 13:20:00,
2013-04-12 09:25:00,38.0,33.6,29.65,WSW,244,8.0,12.0,84,0.00,,,0.09,WeatherCatV1.15B25,2013-04-12 13:25:00,
2013-04-12 09:30:00,38.0,33.0,29.65,WSW,256,3.0,13.0,82,0.00,,,0.09,WeatherCatV1.15B25,2013-04-12 13:30:00,
2013-04-12 09:35:00,37.9,33.2,29.65,WNW,295,5.0,17.0,83,0.00,,,0.09,WeatherCatV1.15B25,2013-04-12 13:35:00,
2013-04-12 09:40:00,37.9,33.2,29.65,West,262,6.0,14.0,83,0.00,,,0.09,WeatherCatV1.15B25,2013-04-12 13:40:00,
2013-04-12 09:45:00,37.9,32.6,29.65,West,271,5.0,12.0,81,0.00,,,0.09,WeatherCatV1.15B25,2013-04-12 13:45:00,
2013-04-12 09:50:00,37.9,32.3,29.65,West,274,6.0,15.0,80,0.00,,,0.09,WeatherCatV1.15B25,2013-04-12 13:50:00,
2013-04-12 09:55:00,37.9,32.3,29.65,WSW,237,5.0,9.0,80,0.00,,,0.09,WeatherCatV1.15B25,2013-04-12 13:55:00,
2013-04-12 10:00:00,37.9,32.9,29.66,SW,214,4.0,13.0,82,0.00,,,0.09,WeatherCatV1.15B25,2013-04-12 14:00:00,
2013-04-12 10:05:00,37.9,32.0,29.66,WSW,245,2.0,12.0,79,0.00,,,0.09,WeatherCatV1.15B25,2013-04-12 14:05:00,
2013-04-12 10:10:00,38.0,32.1,29.66,WNW,290,2.0,7.0,79,0.00,,,0.09,WeatherCatV1.15B25,2013-04-12 14:10:00,
2013-04-12 10:15:00,38.2,32.3,29.66,WSW,245,1.0,5.0,79,0.00,,,0.09,WeatherCatV1.15B25,2013-04-12 14:15:00,
2013-04-12 10:20:00,38.5,32.9,29.66,West,264,5.0,17.0,80,0.00,,,0.09,WeatherCatV1.15B25,2013-04-12 14:20:00,
2013-04-12 10:25:00,38.8,32.9,29.66,WSW,245,4.0,9.0,79,0.00,,,0.09,WeatherCatV1.15B25,2013-04-12 14:25:00,
2013-04-12 10:30:00,39.1,32.8,29.66,West,276,16.0,16.0,78,0.00,,,0.09,WeatherCatV1.15B25,2013-04-12 14:30:00,
2013-04-12 10:35:00,39.2,33.2,29.66,West,269,10.0,12.0,79,0.00,,,0.09,WeatherCatV1.15B25,2013-04-12 14:35:00,
2013-04-12 10:40:00,39.2,33.2,29.66,West,271,3.0,11.0,79,0.00,,,0.09,WeatherCatV1.15B25,2013-04-12 14:40:00,
2013-04-12 10:45:00,39.1,32.8,29.66,WSW,240,1.0,8.0,78,0.00,,,0.09,WeatherCatV1.15B25,2013-04-12 14:45:00,
2013-04-12 10:50:00,38.9,33.0,29.66,WSW,239,6.0,12.0,79,0.00,,,0.09,WeatherCatV1.15B25,2013-04-12 14:50:00,
2013-04-12 10:55:00,38.8,32.9,29.66,WNW,282,1.0,6.0,79,0.00,,,0.09,WeatherCatV1.15B25,2013-04-12 14:55:00,
2013-04-12 11:00:00,38.8,33.8,29.67,West,263,4.0,5.0,82,0.00,,,0.09,WeatherCatV1.15B25,2013-04-12 15:00:00,
2013-04-12 11:05:00,38.8,33.2,29.67,NW,304,2.0,5.0,80,0.00,,,0.09,WeatherCatV1.15B25,2013-04-12 15:05:00,
2013-04-12 11:10:00,38.8,33.5,29.67,WSW,252,9.0,11.0,81,0.00,,,0.09,WeatherCatV1.15B25,2013-04-12 15:10:00,
2013-04-12 11:15:00,38.8,33.5,29.67,WSW,248,7.0,11.0,81,0.00,,,0.09,WeatherCatV1.15B25,2013-04-12 15:15:00,
2013-04-12 11:20:00,38.9,33.6,29.67,West,277,0.0,10.0,81,0.00,,,0.09,WeatherCatV1.15B25,2013-04-12 15:20:00,
2013-04-12 11:25:00,39.2,33.9,29.67,WNW,288,4.0,5.0,81,0.00,,,0.09,WeatherCatV1.15B25,2013-04-12 15:25:00,
2013-04-12 11:30:00,39.2,33.6,29.68,WSW,247,1.0,5.0,80,0.00,,,0.09,WeatherCatV1.15B25,2013-04-12 15:30:00,
2013-04-12 11:35:00,39.3,34.0,29.68,West,281,6.0,7.0,81,0.00,,,0.09,WeatherCatV1.15B25,2013-04-12 15:35:00,
2013-04-12 11:40:00,39.3,34.0,29.68,SW,229,4.0,6.0,81,0.00,,,0.09,WeatherCatV1.15B25,2013-04-12 15:40:00,
2013-04-12 11:45:00,39.5,33.8,29.68,WSW,257,1.0,11.0,80,0.00,,,0.09,WeatherCatV1.15B25,2013-04-12 15:45:00,
2013-04-12 11:50:00,39.6,34.3,29.68,West,271,5.0,5.0,81,0.00,,,0.09,WeatherCatV1.15B25,2013-04-12 15:50:00,
2013-04-12 11:55:00,39.8,33.5,29.68,West,269,3.0,5.0,78,0.00,,,0.09,WeatherCatV1.15B25,2013-04-12 15:55:00,
2013-04-12 12:00:00,40.1,33.5,29.68,SW,222,3.0,10.0,77,0.00,,,0.09,WeatherCatV1.15B25,2013-04-12 16:00:00,
2013-04-12 12:05:00,40.2,33.9,29.68,SSE,165,2.0,9.0,78,0.00,,,0.09,WeatherCatV1.15B25,2013-04-12 16:05:00,
2013-04-12 12:10:00,40.2,34.2,29.68,West,274,3.0,4.0,79,0.00,,,0.09,WeatherCatV1.15B25,2013-04-12 16:10:00,
2013-04-12 12:20:00,40.2,34.2,29.69,SW,236,2.0,9.0,79,0.00,,,0.09,WeatherCatV1.15B25,2013-04-12 16:20:00,
2013-04-12 12:25:00,40.2,33.9,29.69,NW,311,4.0,8.0,78,0.00,,,0.09,WeatherCatV1.15B25,2013-04-12 16:25:00,
2013-04-12 12:30:00,40.1,33.5,29.69,West,269,2.0,9.0,77,0.00,,,0.09,WeatherCatV1.15B25,2013-04-12 16:30:00,
2013-04-12 12:35:00,40.1,33.5,29.69,WSW,252,4.0,9.0,77,0.00,,,0.09,WeatherCatV1.15B25,2013-04-12 16:35:00,
2013-04-12 12:40:00,39.9,33.0,29.69,SW,234,6.0,10.0,76,0.00,,,0.09,WeatherCatV1.15B25,2013-04-12 16:40:00,
2013-04-12 12:45:00,39.9,33.6,29.69,West,277,10.0,11.0,78,0.00,,,0.09,WeatherCatV1.15B25,2013-04-12 16:45:00,
2013-04-12 12:50:00,39.9,33.9,29.69,WNW,303,6.0,12.0,79,0.00,,,0.09,WeatherCatV1.15B25,2013-04-12 16:50:00,
2013-04-12 12:55:00,39.8,33.5,29.69,WNW,284,5.0,7.0,78,0.00,,,0.09,WeatherCatV1.15B25,2013-04-12 16:55:00,
2013-04-12 13:00:00,39.6,33.6,29.70,West,269,15.0,15.0,79,0.00,,,0.09,WeatherCatV1.15B25,2013-04-12 17:00:00,
2013-04-12 13:05:00,39.6,33.9,29.70,West,281,3.0,13.0,80,0.00,,,0.09,WeatherCatV1.15B25,2013-04-12 17:05:00,
2013-04-12 13:15:00,39.8,34.5,29.70,WSW,244,2.0,6.0,81,0.00,,,0.09,WeatherCatV1.15B25,2013-04-12 17:15:00,
2013-04-12 13:20:00,39.8,34.8,29.70,West,262,5.0,11.0,82,0.00,,,0.09,WeatherCatV1.15B25,2013-04-12 17:20:00,
2013-04-12 13:25:00,39.9,34.6,29.70,South,187,3.0,4.0,81,0.00,,,0.09,WeatherCatV1.15B25,2013-04-12 17:25:00,
2013-04-12 13:30:00,39.9,33.9,29.70,West,269,11.0,11.0,79,0.00,,,0.09,WeatherCatV1.15B25,2013-04-12 17:30:00,
2013-04-12 13:35:00,40.1,34.7,29.70,WSW,242,5.0,6.0,81,0.00,,,0.09,WeatherCatV1.15B25,2013-04-12 17:35:00,
2013-04-12 13:40:00,40.2,34.5,29.70,West,274,2.0,5.0,80,0.00,,,0.09,WeatherCatV1.15B25,2013-04-12 17:40:00,
2013-04-12 13:45:00,40.3,34.6,29.69,West,274,3.0,3.0,80,0.00,,,0.09,WeatherCatV1.15B25,2013-04-12 17:45:00,
2013-04-12 13:50:00,40.3,34.6,29.69,WNW,288,4.0,4.0,80,0.00,,,0.09,WeatherCatV1.15B25,2013-04-12 17:50:00,
2013-04-12 13:55:00,40.3,34.3,29.69,West,268,3.0,12.0,79,0.00,,,0.09,WeatherCatV1.15B25,2013-04-12 17:55:00,
2013-04-12 14:05:00,40.5,35.1,29.70,WSW,245,2.0,10.0,81,0.00,,,0.09,WeatherCatV1.15B25,2013-04-12 18:05:00,
2013-04-12 14:10:00,40.5,34.5,29.70,West,279,5.0,10.0,79,0.00,,,0.09,WeatherCatV1.15B25,2013-04-12 18:10:00,
2013-04-12 14:15:00,40.5,34.2,29.70,SW,221,2.0,12.0,78,0.00,,,0.09,WeatherCatV1.15B25,2013-04-12 18:15:00,
2013-04-12 14:20:00,40.6,34.6,29.70,West,269,6.0,18.0,79,0.00,,,0.09,WeatherCatV1.15B25,2013-04-12 18:20:00,
2013-04-12 14:25:00,40.6,34.9,29.70,West,281,2.0,7.0,80,0.00,,,0.09,WeatherCatV1.15B25,2013-04-12 18:25:00,
2013-04-12 14:30:00,40.6,35.2,29.71,West,268,4.0,11.0,81,0.00,,,0.09,WeatherCatV1.15B25,2013-04-12 18:30:00,
2013-04-12 14:35:00,40.6,34.9,29.71,WSW,256,4.0,11.0,80,0.00,,,0.00,WeatherCatV1.15B25,2013-04-12 18:35:00,
2013-04-12 14:40:00,40.8,35.1,29.71,WSW,252,4.0,11.0,80,0.00,,,0.00,WeatherCatV1.15B25,2013-04-12 18:40:00,
2013-04-12 14:45:00,40.8,34.8,29.72,WSW,256,4.0,9.0,79,0.00,,,0.00,WeatherCatV1.15B25,2013-04-12 18:45:00,
2013-04-12 14:50:00,40.9,35.2,29.72,WSW,250,3.0,7.0,80,0.00,,,0.00,WeatherCatV1.15B25,2013-04-12 18:50:00,
2013-04-12 14:55:00,40.8,35.1,29.72,WSW,252,3.0,10.0,80,0.00,,,0.00,WeatherCatV1.15B25,2013-04-12 18:55:00,
2013-04-12 15:00:00,40.8,35.1,29.72,West,261,4.0,10.0,80,0.00,,,0.00,WeatherCatV1.15B25,2013-04-12 19:00:00,
2013-04-12 15:05:00,40.8,35.1,29.72,WSW,251,4.0,15.0,80,0.00,,,0.00,WeatherCatV1.15B25,2013-04-12 19:05:00,
2013-04-12 15:10:00,40.9,35.8,29.72,WSW,257,5.0,11.0,82,0.00,,,0.00,WeatherCatV1.15B25,2013-04-12 19:10:00,
2013-04-12 15:15:00,41.2,35.5,29.72,West,260,5.0,12.0,80,0.00,,,0.00,WeatherCatV1.15B25,2013-04-12 19:15:00,
2013-04-12 15:27:00,41.6,35.6,29.72,West,259,5.0,16.0,79,0.00,,,0.00,WeatherCatV1.15B25,2013-04-12 19:27:00,
2013-04-12 15:32:00,42.5,35.5,29.73,SW,229,0.0,17.0,76,0.00,,,0.09,WeatherCatV1.15B25,2013-04-12 19:32:00,
2013-04-12 15:37:00,42.6,35.6,29.73,WSW,255,3.0,10.0,76,0.00,,,0.09,WeatherCatV1.15B25,2013-04-12 19:37:00,
2013-04-12 15:42:00,42.8,35.4,29.73,SSW,199,6.0,16.0,75,0.00,,,0.09,WeatherCatV1.15B25,2013-04-12 19:42:00,
2013-04-12 15:52:00,43.2,35.8,29.73,WNW,293,16.0,16.0,75,0.00,,,0.09,WeatherCatV1.15B25,2013-04-12 19:52:00,
2013-04-12 15:57:00,44.1,37.0,29.73,WSW,255,5.0,7.0,76,0.00,,,0.09,WeatherCatV1.15B25,2013-04-12 19:57:00,
2013-04-12 16:02:00,44.3,36.2,29.73,NW,318,2.0,11.0,73,0.00,,,0.09,WeatherCatV1.15B25,2013-04-12 20:02:00,
2013-04-12 16:07:00,44.2,36.4,29.73,WSW,242,6.0,12.0,74,0.00,,,0.09,WeatherCatV1.15B25,2013-04-12 20:07:00,
2013-04-12 16:12:00,43.8,35.0,29.73,West,263,12.0,13.0,71,0.00,,,0.09,WeatherCatV1.15B25,2013-04-12 20:12:00,
2013-04-12 16:17:00,43.2,35.1,29.74,SSE,158,3.0,11.0,73,0.00,,,0.09,WeatherCatV1.15B25,2013-04-12 20:17:00,
2013-04-12 16:22:00,42.8,35.4,29.74,SW,225,3.0,12.0,75,0.00,,,0.09,WeatherCatV1.15B25,2013-04-12 20:22:00,
2013-04-12 16:27:00,42.5,35.1,29.74,West,271,6.0,16.0,75,0.00,,,0.09,WeatherCatV1.15B25,2013-04-12 20:27:00,
2013-04-12 16:32:00,42.5,35.1,29.74,WNW,290,9.0,16.0,75,0.00,,,0.09,WeatherCatV1.15B25,2013-04-12 20:32:00,
2013-04-12 16:37:00,42.5,34.8,29.74,West,281,1.0,13.0,74,0.00,,,0.09,WeatherCatV1.15B25,2013-04-12 20:37:00,
2013-04-12 16:42:00,42.6,34.9,29.74,WSW,255,8.0,15.0,74,0.00,,,0.09,WeatherCatV1.15B25,2013-04-12 20:42:00,
2013-04-12 16:47:00,42.5,34.1,29.75,West,280,6.0,17.0,72,0.00,,,0.09,WeatherCatV1.15B25,2013-04-12 20:47:00,
2013-04-12 16:52:00,42.2,33.8,29.75,West,259,6.0,17.0,72,0.00,,,0.09,WeatherCatV1.15B25,2013-04-12 20:52:00,
2013-04-12 16:57:00,42.2,34.9,29.75,WNW,285,14.0,15.0,75,0.00,,,0.09,WeatherCatV1.15B25,2013-04-12 20:57:00,
2013-04-12 17:02:00,42.1,35.1,29.75,WSW,239,12.0,14.0,76,0.00,,,0.09,WeatherCatV1.15B25,2013-04-12 21:02:00,
2013-04-12 17:07:00,41.9,35.2,29.75,West,277,10.0,15.0,77,0.00,,,0.09,WeatherCatV1.15B25,2013-04-12 21:07:00,
2013-04-12 17:17:00,41.2,36.7,29.76,WSW,245,11.0,12.0,84,0.00,,,0.09,WeatherCatV1.15B25,2013-04-12 21:17:00,
2013-04-12 17:22:00,40.9,37.0,29.76,SW,236,2.0,10.0,86,0.00,,,0.09,WeatherCatV1.15B25,2013-04-12 21:22:00,
2013-04-12 17:27:00,41.5,38.2,29.76,West,278,7.0,11.0,88,0.00,,,0.09,WeatherCatV1.15B25,2013-04-12 21:27:00,
2013-04-12 17:32:00,41.8,37.9,29.76,West,264,6.0,11.0,86,0.00,,,0.09,WeatherCatV1.15B25,2013-04-12 21:32:00,
2013-04-12 17:37:00,42.1,38.5,29.76,WSW,255,3.0,12.0,87,0.00,,,0.09,WeatherCatV1.15B25,2013-04-12 21:37:00,
2013-04-12 17:42:00,42.3,38.1,29.76,West,274,5.0,9.0,85,0.00,,,0.09,WeatherCatV1.15B25,2013-04-12 21:42:00,
2013-04-12 17:47:00,42.5,38.0,29.77,WSW,257,5.0,6.0,84,0.00,,,0.09,WeatherCatV1.15B25,2013-04-12 21:47:00,
2013-04-12 17:52:00,42.6,38.1,29.77,WNW,290,5.0,16.0,84,0.00,,,0.09,WeatherCatV1.15B25,2013-04-12 21:52:00,
2013-04-12 17:57:00,42.5,37.1,29.77,SW,223,12.0,19.0,81,0.00,,,0.09,WeatherCatV1.15B25,2013-04-12 21:57:00,
2013-04-12 18:02:00,42.3,36.9,29.77,WNW,293,4.0,12.0,81,0.00,,,0.09,WeatherCatV1.15B25,2013-04-12 22:02:00,
2013-04-12 18:07:00,42.5,37.4,29.77,SW,219,2.0,14.0,82,0.00,,,0.09,WeatherCatV1.15B25,2013-04-12 22:07:00,
2013-04-12 18:12:00,42.6,37.5,29.77,SSW,192,10.0,16.0,82,0.00,,,0.09,WeatherCatV1.15B25,2013-04-12 22:12:00,
2013-04-12 18:17:00,42.6,36.9,29.78,WSW,257,3.0,9.0,80,0.00,,,0.09,WeatherCatV1.15B25,2013-04-12 22:17:00,
2013-04-12 18:22:00,42.6,37.2,29.78,West,274,5.0,15.0,81,0.00,,,0.09,WeatherCatV1.15B25,2013-04-12 22:22:00,
2013-04-12 18:27:00,42.6,37.2,29.78,NW,314,4.0,8.0,81,0.00,,,0.09,WeatherCatV1.15B25,2013-04-12 22:27:00,
2013-04-12 18:32:00,42.3,36.6,29.78,WSW,256,1.0,15.0,80,0.00,,,0.09,WeatherCatV1.15B25,2013-04-12 22:32:00,
2013-04-12 18:37:00,42.2,37.1,29.78,SSW,204,5.0,15.0,82,0.00,,,0.09,WeatherCatV1.15B25,2013-04-12 22:37:00,
2013-04-12 18:42:00,41.6,37.7,29.78,SW,232,4.0,16.0,86,0.00,,,0.09,WeatherCatV1.15B25,2013-04-12 22:42:00,
2013-04-12 18:47:00,41.2,37.9,29.79,WNW,295,11.0,12.0,88,0.00,,,0.09,WeatherCatV1.15B25,2013-04-12 22:47:00,
2013-04-12 18:52:00,40.8,37.8,29.79,West,262,2.0,9.0,89,0.00,,,0.09,WeatherCatV1.15B25,2013-04-12 22:52:00,
2013-04-12 18:57:00,40.6,38.2,29.79,WNW,301,5.0,8.0,91,0.00,,,0.09,WeatherCatV1.15B25,2013-04-12 22:57:00,
2013-04-12 19:02:00,40.3,37.9,29.79,WNW,289,6.0,8.0,91,0.00,,,0.09,WeatherCatV1.15B25,2013-04-12 23:02:00,
2013-04-12 19:07:00,40.3,37.9,29.79,WSW,250,2.0,10.0,91,0.00,,,0.10,WeatherCatV1.15B25,2013-04-12 23:07:00,
2013-04-12 19:12:00,40.3,38.2,29.79,West,259,2.0,6.0,92,0.00,,,0.10,WeatherCatV1.15B25,2013-04-12 23:12:00,
2013-04-12 19:17:00,40.3,37.9,29.80,NW,311,10.0,13.0,91,0.00,,,0.10,WeatherCatV1.15B25,2013-04-12 23:17:00,
2013-04-12 19:22:00,40.5,37.8,29.80,WSW,246,8.0,18.0,90,0.00,,,0.10,WeatherCatV1.15B25,2013-04-12 23:22:00,
2013-04-12 19:27:00,40.6,37.6,29.80,SSW,212,5.0,18.0,89,0.00,,,0.10,WeatherCatV1.15B25,2013-04-12 23:27:00,
2013-04-12 19:32:00,40.6,37.3,29.80,NW,304,5.0,19.0,88,0.00,,,0.10,WeatherCatV1.15B25,2013-04-12 23:32:00,
2013-04-12 19:37:00,40.8,37.5,29.80,WNW,282,9.0,19.0,88,0.00,,,0.10,WeatherCatV1.15B25,2013-04-12 23:37:00,
2013-04-12 19:42:00,40.8,37.5,29.80,West,277,7.0,17.0,88,0.00,,,0.10,WeatherCatV1.15B25,2013-04-12 23:42:00,
2013-04-12 19:47:00,40.8,37.8,29.80,WNW,292,4.0,14.0,89,0.00,,,0.10,WeatherCatV1.15B25,2013-04-12 23:47:00,
2013-04-12 19:52:00,40.6,37.6,29.80,SW,236,16.0,17.0,89,0.00,,,0.10,WeatherCatV1.15B25,2013-04-12 23:52:00,
2013-04-12 19:57:00,40.6,37.9,29.80,West,259,4.0,15.0,90,0.00,,,0.10,WeatherCatV1.15B25,2013-04-12 23:57:00,
2013-04-12 20:02:00,40.5,37.8,29.80,West,277,1.0,5.0,90,0.00,,,0.10,WeatherCatV1.15B25,2013-04-13 00:02:00,
2013-04-12 20:07:00,40.3,37.9,29.80,WSW,255,2.0,12.0,91,0.00,,,0.10,WeatherCatV1.15B25,2013-04-13 00:07:00,
2013-04-12 20:17:00,40.2,38.1,29.80,NW,306,1.0,7.0,92,0.00,,,0.10,WeatherCatV1.15B25,2013-04-13 00:17:00,
2013-04-12 20:22:00,40.2,38.1,29.80,WNW,282,2.0,5.0,92,0.00,,,0.10,WeatherCatV1.15B25,2013-04-13 00:22:00,
2013-04-12 20:27:00,40.2,38.1,29.80,WSW,248,3.0,10.0,92,0.00,,,0.10,WeatherCatV1.15B25,2013-04-13 00:27:00,
2013-04-12 20:32:00,40.2,38.1,29.81,WSW,250,2.0,12.0,92,0.00,,,0.10,WeatherCatV1.15B25,2013-04-13 00:32:00,
2013-04-12 20:37:00,40.2,38.1,29.81,WNW,293,4.0,7.0,92,0.00,,,0.10,WeatherCatV1.15B25,2013-04-13 00:37:00,
2013-04-12 20:42:00,40.2,38.1,29.81,West,273,2.0,5.0,92,0.00,,,0.10,WeatherCatV1.15B25,2013-04-13 00:42:00,
2013-04-12 20:47:00,40.3,37.9,29.81,WSW,254,3.0,13.0,91,0.00,,,0.10,WeatherCatV1.15B25,2013-04-13 00:47:00,
2013-04-12 20:52:00,40.3,37.9,29.81,WSW,238,3.0,11.0,91,0.00,,,0.10,WeatherCatV1.15B25,2013-04-13 00:52:00,
2013-04-12 20:57:00,40.3,37.6,29.81,West,259,2.0,4.0,90,0.00,,,0.10,WeatherCatV1.15B25,2013-04-13 00:57:00,
2013-04-12 21:02:00,40.5,37.8,29.82,West,281,3.0,6.0,90,0.00,,,0.10,WeatherCatV1.15B25,2013-04-13 01:02:00,
2013-04-12 21:07:00,40.5,37.2,29.82,WSW,242,1.0,14.0,88,0.00,,,0.10,WeatherCatV1.15B25,2013-04-13 01:07:00,
2013-04-12 21:12:00,40.6,36.7,29.82,West,278,7.0,10.0,86,0.00,,,0.10,WeatherCatV1.15B25,2013-04-13 01:12:00,
2013-04-12 21:22:00,40.6,36.5,29.82,West,259,5.0,5.0,85,0.00,,,0.10,WeatherCatV1.15B25,2013-04-13 01:22:00,
2013-04-12 21:27:00,40.6,36.5,29.82,West,273,10.0,12.0,85,0.00,,,0.10,WeatherCatV1.15B25,2013-04-13 01:27:00,
2013-04-12 21:32:00,40.6,36.5,29.82,WNW,283,3.0,5.0,85,0.00,,,0.10,WeatherCatV1.15B25,2013-04-13 01:32:00,
2013-04-12 21:37:00,40.6,36.7,29.82,WSW,254,2.0,10.0,86,0.00,,,0.10,WeatherCatV1.15B25,2013-04-13 01:37:00,
2013-04-12 21:42:00,40.5,36.6,29.82,West,259,5.0,13.0,86,0.00,,,0.10,WeatherCatV1.15B25,2013-04-13 01:42:00,
2013-04-12 21:47:00,40.6,36.7,29.83,SW,214,2.0,15.0,86,0.00,,,0.10,WeatherCatV1.15B25,2013-04-13 01:47:00,
2013-04-12 21:52:00,40.5,36.6,29.83,West,274,4.0,14.0,86,0.00,,,0.10,WeatherCatV1.15B25,2013-04-13 01:52:00,
2013-04-12 21:57:00,40.2,37.2,29.83,NNW,328,7.0,12.0,89,0.00,,,0.10,WeatherCatV1.15B25,2013-04-13 01:57:00,
2013-04-12 22:02:00,39.9,37.2,29.84,West,259,5.0,17.0,90,0.00,,,0.10,WeatherCatV1.15B25,2013-04-13 02:02:00,
2013-04-12 22:07:00,39.5,37.1,29.84,West,276,3.0,9.0,91,0.00,,,0.10,WeatherCatV1.15B25,2013-04-13 02:07:00,
2013-04-12 22:17:00,38.9,36.5,29.85,WNW,298,7.0,10.0,91,0.00,,,0.10,WeatherCatV1.15B25,2013-04-13 02:17:00,
2013-04-12 22:22:00,38.8,36.4,29.85,WNW,302,10.0,11.0,91,0.00,,,0.10,WeatherCatV1.15B25,2013-04-13 02:22:00,
2013-04-12 22:27:00,38.3,36.2,29.85,West,281,3.0,14.0,92,0.00,,,0.10,WeatherCatV1.15B25,2013-04-13 02:27:00,
2013-04-12 22:32:00,38.0,35.9,29.85,West,268,1.0,12.0,92,0.00,,,0.11,WeatherCatV1.15B25,2013-04-13 02:32:00,
2013-04-12 22:37:00,37.6,35.8,29.85,WSW,257,3.0,15.0,93,0.00,,,0.11,WeatherCatV1.15B25,2013-04-13 02:37:00,
2013-04-12 22:47:00,37.3,36.0,29.85,West,268,5.0,6.0,95,0.00,,,0.11,WeatherCatV1.15B25,2013-04-13 02:47:00,
2013-04-12 22:52:00,37.3,36.0,29.85,West,266,7.0,11.0,95,0.00,,,0.11,WeatherCatV1.15B25,2013-04-13 02:52:00,
2013-04-12 22:57:00,37.3,36.0,29.85,West,259,4.0,10.0,95,0.00,,,0.11,WeatherCatV1.15B25,2013-04-13 02:57:00,
2013-04-12 23:02:00,37.5,36.2,29.85,SW,219,4.0,9.0,95,0.00,,,0.11,WeatherCatV1.15B25,2013-04-13 03:02:00,
2013-04-12 23:07:00,37.6,36.3,29.85,WSW,250,2.0,11.0,95,0.00,,,0.11,WeatherCatV1.15B25,2013-04-13 03:07:00,
2013-04-12 23:12:00,37.6,36.3,29.85,WSW,248,4.0,11.0,95,0.00,,,0.11,WeatherCatV1.15B25,2013-04-13 03:12:00,
2013-04-12 23:22:00,37.9,36.6,29.85,West,262,3.0,7.0,95,0.00,,,0.11,WeatherCatV1.15B25,2013-04-13 03:22:00,
2013-04-12 23:32:00,38.0,36.4,29.86,WNW,296,2.0,10.0,94,0.00,,,0.11,WeatherCatV1.15B25,2013-04-13 03:32:00,
2013-04-12 23:37:00,38.2,36.4,29.86,West,262,4.0,7.0,93,0.00,,,0.11,WeatherCatV1.15B25,2013-04-13 03:37:00,
2013-04-12 23:42:00,38.2,36.4,29.86,West,264,2.0,5.0,93,0.00,,,0.11,WeatherCatV1.15B25,2013-04-13 03:42:00,
2013-04-12 23:47:00,38.2,36.1,29.86,West,264,2.0,7.0,92,0.00,,,0.11,WeatherCatV1.15B25,2013-04-13 03:47:00,
2013-04-12 23:57:00,38.0,35.9,29.86,West,268,3.0,6.0,92,0.00,,,0.11,WeatherCatV1.15B25,2013-04-13 03:57:00,